Time,TemperatureF,DewpointF,PressureIn,WindDirection,WindDirectionDegrees,WindSpeedMPH,WindSpeedGustMPH,Humidity,HourlyPrecipIn,Conditions,Clouds,dailyrainin,SoftwareType,DateUTC
2013-02-15 00:07:00,31.7,29.0,29.93,WSW,238,0.0,-999.0,88,-99.99,,,0.00,weatherlink.com 1.10,2013-02-15 05:07:00,
2013-02-15 00:22:00,31.4,28.0,29.93,WSW,238,0.0,-999.0,88,-99.99,,,0.00,weatherlink.com 1.10,2013-02-15 05:22:00,
2013-02-15 00:37:00,31.2,28.0,29.93,WSW,238,0.0,-999.0,88,-99.99,,,0.00,weatherlink.com 1.10,2013-02-15 05:37:00,
2013-02-15 00:52:00,31.1,28.0,29.93,WSW,238,0.0,-999.0,88,-99.99,,,0.00,weatherlink.com 1.10,2013-02-15 05:52:00,
2013-02-15 01:07:00,31.2,28.0,29.93,WSW,238,0.0,-999.0,89,-99.99,,,0.00,weatherlink.com 1.10,2013-02-15 06:07:00,
2013-02-15 01:22:00,31.4,29.0,29.94,WSW,238,0.0,-999.0,89,-99.99,,,0.00,weatherlink.com 1.10,2013-02-15 06:22:00,
2013-02-15 01:37:00,31.5,29.0,29.94,WSW,238,0.0,-999.0,89,-99.99,,,0.00,weatherlink.com 1.10,2013-02-15 06:37:00,
2013-02-15 01:52:00,31.7,29.0,29.94,WSW,238,0.0,-999.0,89,-99.99,,,0.00,weatherlink.com 1.10,2013-02-15 06:52:00,
2013-02-15 02:07:00,31.9,29.0,29.94,WSW,238,0.0,-999.0,89,-99.99,,,0.00,weatherlink.com 1.10,2013-02-15 07:07:00,
2013-02-15 02:22:00,32.3,30.0,29.94,SSE,161,1.0,-999.0,89,-99.99,,,0.00,weatherlink.com 1.10,2013-02-15 07:22:00,
2013-02-15 02:37:00,33.0,30.0,29.93,West,271,0.0,-999.0,88,-99.99,,,0.00,weatherlink.com 1.10,2013-02-15 07:37:00,
2013-02-15 02:52:00,33.6,30.0,29.93,South,176,0.0,-999.0,86,-99.99,,,0.00,weatherlink.com 1.10,2013-02-15 07:52:00,
2013-02-15 03:07:00,33.8,30.0,29.93,South,176,0.0,-999.0,85,-99.99,,,0.00,weatherlink.com 1.10,2013-02-15 08:07:00,
2013-02-15 03:22:00,33.8,30.0,29.93,South,176,0.0,-999.0,84,-99.99,,,0.00,weatherlink.com 1.10,2013-02-15 08:22:00,
2013-02-15 03:37:00,33.7,29.0,29.93,South,176,0.0,-999.0,84,-99.99,,,0.00,weatherlink.com 1.10,2013-02-15 08:37:00,
2013-02-15 03:52:00,33.6,30.0,29.93,South,176,0.0,-999.0,85,-99.99,,,0.00,weatherlink.com 1.10,2013-02-15 08:52:00,
2013-02-15 04:07:00,33.5,30.0,29.93,South,176,0.0,-999.0,85,-99.99,,,0.00,weatherlink.com 1.10,2013-02-15 09:07:00,
2013-02-15 04:22:00,33.5,30.0,29.93,South,176,0.0,-999.0,85,-99.99,,,0.00,weatherlink.com 1.10,2013-02-15 09:22:00,
2013-02-15 04:37:00,33.4,30.0,29.93,South,176,0.0,-999.0,86,-99.99,,,0.00,weatherlink.com 1.10,2013-02-15 09:37:00,
2013-02-15 04:52:00,33.2,30.0,29.94,South,176,0.0,-999.0,86,-99.99,,,0.00,weatherlink.com 1.10,2013-02-15 09:52:00,
2013-02-15 05:07:00,33.1,29.0,29.94,South,176,0.0,-999.0,86,-99.99,,,0.00,weatherlink.com 1.10,2013-02-15 10:07:00,
2013-02-15 05:22:00,33.0,29.0,29.94,South,176,0.0,-999.0,86,-99.99,,,0.00,weatherlink.com 1.10,2013-02-15 10:22:00,
2013-02-15 05:37:00,32.9,30.0,29.95,South,176,0.0,-999.0,87,-99.99,,,0.00,weatherlink.com 1.10,2013-02-15 10:37:00,
2013-02-15 05:52:00,32.5,29.0,29.95,South,176,0.0,-999.0,86,-99.99,,,0.00,weatherlink.com 1.10,2013-02-15 10:52:00,
2013-02-15 06:07:00,32.0,28.0,29.95,South,176,0.0,-999.0,86,-99.99,,,0.00,weatherlink.com 1.10,2013-02-15 11:07:00,
2013-02-15 06:22:00,31.3,28.0,29.95,South,176,0.0,-999.0,86,-99.99,,,0.00,weatherlink.com 1.10,2013-02-15 11:22:00,
2013-02-15 06:37:00,30.9,27.0,29.95,South,176,0.0,-999.0,86,-99.99,,,0.00,weatherlink.com 1.10,2013-02-15 11:37:00,
2013-02-15 06:52:00,30.6,27.0,29.95,South,176,0.0,-999.0,87,-99.99,,,0.00,weatherlink.com 1.10,2013-02-15 11:52:00,
2013-02-15 07:07:00,30.3,27.0,29.96,South,176,0.0,-999.0,87,-99.99,,,0.00,weatherlink.com 1.10,2013-02-15 12:07:00,
2013-02-15 07:22:00,30.2,27.0,29.96,South,176,0.0,-999.0,88,-99.99,,,0.00,weatherlink.com 1.10,2013-02-15 12:22:00,
2013-02-15 07:37:00,30.4,27.0,29.97,South,176,0.0,-999.0,88,-99.99,,,0.00,weatherlink.com 1.10,2013-02-15 12:37:00,
2013-02-15 07:52:00,30.6,28.0,29.97,South,176,0.0,-999.0,89,-99.99,,,0.00,weatherlink.com 1.10,2013-02-15 12:52:00,
2013-02-15 08:07:00,30.9,28.0,29.98,South,176,0.0,-999.0,89,-99.99,,,0.00,weatherlink.com 1.10,2013-02-15 13:07:00,
2013-02-15 08:22:00,31.6,29.0,29.98,South,176,0.0,-999.0,90,-99.99,,,0.00,weatherlink.com 1.10,2013-02-15 13:22:00,
2013-02-15 08:38:00,32.3,30.0,29.98,South,176,0.0,-999.0,90,-99.99,,,0.00,weatherlink.com 1.10,2013-02-15 13:38:00,
2013-02-15 08:53:00,33.2,31.0,29.98,South,176,0.0,-999.0,90,-99.99,,,0.00,weatherlink.com 1.10,2013-02-15 13:53:00,
2013-02-15 09:07:00,34.6,31.0,29.98,South,176,0.0,-999.0,88,-99.99,,,0.00,weatherlink.com 1.10,2013-02-15 14:07:00,
2013-02-15 09:22:00,37.2,33.0,29.99,SSW,213,0.0,-999.0,83,-99.99,,,0.00,weatherlink.com 1.10,2013-02-15 14:22:00,
2013-02-15 09:37:00,39.3,32.0,29.99,WSW,254,2.0,-999.0,76,-99.99,,,0.00,weatherlink.com 1.10,2013-02-15 14:37:00,
2013-02-15 09:53:00,40.4,32.0,30.00,WSW,257,2.0,-999.0,73,-99.99,,,0.00,weatherlink.com 1.10,2013-02-15 14:53:00,
2013-02-15 10:08:00,41.1,33.0,30.00,WSW,250,0.0,-999.0,72,-99.99,,,0.00,weatherlink.com 1.10,2013-02-15 15:08:00,
2013-02-15 10:23:00,41.8,33.0,30.00,SW,218,3.0,-999.0,70,-99.99,,,0.00,weatherlink.com 1.10,2013-02-15 15:23:00,
2013-02-15 10:38:00,42.0,32.0,30.00,SW,225,8.0,-999.0,68,-99.99,,,0.00,weatherlink.com 1.10,2013-02-15 15:38:00,
2013-02-15 10:53:00,42.3,32.0,30.00,West,263,5.0,-999.0,66,-99.99,,,0.00,weatherlink.com 1.10,2013-02-15 15:53:00,
2013-02-15 11:08:00,42.5,30.0,30.00,WNW,284,5.0,-999.0,62,-99.99,,,0.00,weatherlink.com 1.10,2013-02-15 16:08:00,
2013-02-15 11:23:00,43.4,31.0,30.00,SW,221,5.0,-999.0,62,-99.99,,,0.00,weatherlink.com 1.10,2013-02-15 16:23:00,
2013-02-15 11:38:00,44.6,32.0,29.99,SSW,211,3.0,-999.0,61,-99.99,,,0.00,weatherlink.com 1.10,2013-02-15 16:38:00,
2013-02-15 11:53:00,45.9,31.0,29.98,SSW,210,6.0,-999.0,57,-99.99,,,0.00,weatherlink.com 1.10,2013-02-15 16:53:00,
2013-02-15 12:08:00,45.1,31.0,29.98,SSW,208,6.0,-999.0,58,-99.99,,,0.00,weatherlink.com 1.10,2013-02-15 17:08:00,
2013-02-15 12:23:00,45.2,31.0,29.97,WSW,242,4.0,-999.0,59,-99.99,,,0.00,weatherlink.com 1.10,2013-02-15 17:23:00,
2013-02-15 12:38:00,44.8,29.0,29.97,SW,227,4.0,-999.0,54,-99.99,,,0.00,weatherlink.com 1.10,2013-02-15 17:38:00,
2013-02-15 12:53:00,44.5,29.0,29.96,SW,214,1.0,-999.0,55,-99.99,,,0.00,weatherlink.com 1.10,2013-02-15 17:53:00,
2013-02-15 13:23:00,46.1,28.0,29.96,SSW,206,5.0,-999.0,50,-99.99,,,0.00,weatherlink.com 1.10,2013-02-15 18:23:00,
2013-02-15 13:38:00,47.1,29.0,29.96,WSW,237,3.0,-999.0,50,-99.99,,,0.00,weatherlink.com 1.10,2013-02-15 18:38:00,
2013-02-15 13:53:00,46.9,30.0,29.96,NW,309,3.0,-999.0,52,-99.99,,,0.00,weatherlink.com 1.10,2013-02-15 18:53:00,
2013-02-15 14:08:00,46.6,28.0,29.95,SSW,195,1.0,-999.0,49,-99.99,,,0.00,weatherlink.com 1.10,2013-02-15 19:08:00,
2013-02-15 14:23:00,47.8,29.0,29.95,SW,233,5.0,-999.0,48,-99.99,,,0.00,weatherlink.com 1.10,2013-02-15 19:23:00,
2013-02-15 14:38:00,46.9,27.0,29.95,SSW,203,5.0,-999.0,47,-99.99,,,0.00,weatherlink.com 1.10,2013-02-15 19:38:00,
2013-02-15 14:53:00,46.1,28.0,29.95,SW,232,6.0,-999.0,50,-99.99,,,0.00,weatherlink.com 1.10,2013-02-15 19:53:00,
2013-02-15 15:08:00,45.9,28.0,29.94,West,263,0.0,-999.0,50,-99.99,,,0.00,weatherlink.com 1.10,2013-02-15 20:08:00,
2013-02-15 15:38:00,46.5,28.0,29.95,SW,233,4.0,-999.0,48,-99.99,,,0.00,weatherlink.com 1.10,2013-02-15 20:38:00,
2013-02-15 15:53:00,46.4,28.0,29.95,SSW,212,1.0,-999.0,50,-99.99,,,0.00,weatherlink.com 1.10,2013-02-15 20:53:00,
2013-02-15 16:09:00,46.5,29.0,29.95,South,178,0.0,-999.0,51,-99.99,,,0.00,weatherlink.com 1.10,2013-02-15 21:09:00,
2013-02-15 16:23:00,46.7,28.0,29.95,SW,227,5.0,-999.0,49,-99.99,,,0.00,weatherlink.com 1.10,2013-02-15 21:23:00,
2013-02-15 16:38:00,46.1,28.0,29.95,SW,223,1.0,-999.0,50,-99.99,,,0.00,weatherlink.com 1.10,2013-02-15 21:38:00,
2013-02-15 16:53:00,45.4,29.0,29.95,SW,217,1.0,-999.0,52,-99.99,,,0.00,weatherlink.com 1.10,2013-02-15 21:53:00,
2013-02-15 17:08:00,44.8,29.0,29.95,SSW,205,3.0,-999.0,54,-99.99,,,0.00,weatherlink.com 1.10,2013-02-15 22:08:00,
2013-02-15 17:23:00,44.2,29.0,29.95,SSW,213,3.0,-999.0,56,-99.99,,,0.00,weatherlink.com 1.10,2013-02-15 22:23:00,
2013-02-15 17:39:00,43.7,29.0,29.96,West,269,1.0,-999.0,56,-99.99,,,0.00,weatherlink.com 1.10,2013-02-15 22:39:00,
2013-02-15 17:53:00,43.2,29.0,29.96,NW,304,3.0,-999.0,58,-99.99,,,0.00,weatherlink.com 1.10,2013-02-15 22:53:00,
2013-02-15 18:08:00,42.5,30.0,29.96,West,276,2.0,-999.0,61,-99.99,,,0.00,weatherlink.com 1.10,2013-02-15 23:08:00,
2013-02-15 18:23:00,42.0,30.0,29.97,NNW,331,3.0,-999.0,63,-99.99,,,0.00,weatherlink.com 1.10,2013-02-15 23:23:00,
2013-02-15 18:39:00,41.1,32.0,29.97,West,269,4.0,-999.0,69,-99.99,,,0.00,weatherlink.com 1.10,2013-02-15 23:39:00,
2013-02-15 18:53:00,40.2,32.0,29.97,SW,223,7.0,-999.0,73,-99.99,,,0.00,weatherlink.com 1.10,2013-02-15 23:53:00,
2013-02-15 19:08:00,39.3,33.0,29.98,West,277,3.0,-999.0,78,-99.99,,,0.00,weatherlink.com 1.10,2013-02-16 00:08:00,
2013-02-15 19:24:00,38.3,33.0,29.98,SW,224,2.0,-999.0,81,-99.99,,,0.00,weatherlink.com 1.10,2013-02-16 00:24:00,
2013-02-15 19:38:00,37.9,34.0,29.99,SW,222,1.0,-999.0,84,-99.99,,,0.00,weatherlink.com 1.10,2013-02-16 00:38:00,
2013-02-15 19:54:00,37.4,33.0,29.98,SSW,209,1.0,-999.0,85,-99.99,,,0.00,weatherlink.com 1.10,2013-02-16 00:54:00,
2013-02-15 20:24:00,36.7,33.0,29.99,WSW,247,1.0,-999.0,87,-99.99,,,0.00,weatherlink.com 1.10,2013-02-16 01:24:00,
2013-02-15 20:38:00,36.1,33.0,29.99,West,281,0.0,-999.0,87,-99.99,,,0.00,weatherlink.com 1.10,2013-02-16 01:38:00,
2013-02-15 20:53:00,35.6,32.0,29.99,West,275,0.0,-999.0,87,-99.99,,,0.00,weatherlink.com 1.10,2013-02-16 01:53:00,
2013-02-15 21:09:00,35.3,32.0,29.99,West,275,0.0,-999.0,88,-99.99,,,0.00,weatherlink.com 1.10,2013-02-16 02:09:00,
2013-02-15 21:24:00,35.0,32.0,29.99,West,275,0.0,-999.0,88,-99.99,,,0.00,weatherlink.com 1.10,2013-02-16 02:24:00,
2013-02-15 21:38:00,34.8,32.0,29.99,West,275,0.0,-999.0,88,-99.99,,,0.00,weatherlink.com 1.10,2013-02-16 02:38:00,
2013-02-15 21:54:00,34.6,31.0,30.00,West,275,0.0,-999.0,88,-99.99,,,0.00,weatherlink.com 1.10,2013-02-16 02:54:00,
2013-02-15 22:09:00,34.4,32.0,29.99,West,275,0.0,-999.0,89,-99.99,,,0.00,weatherlink.com 1.10,2013-02-16 03:09:00,
2013-02-15 22:24:00,34.3,31.0,29.99,West,275,0.0,-999.0,89,-99.99,,,0.00,weatherlink.com 1.10,2013-02-16 03:24:00,
2013-02-15 22:39:00,34.2,31.0,30.00,West,275,0.0,-999.0,89,-99.99,,,0.00,weatherlink.com 1.10,2013-02-16 03:39:00,
2013-02-15 22:54:00,34.1,31.0,29.99,West,275,0.0,-999.0,89,-99.99,,,0.00,weatherlink.com 1.10,2013-02-16 03:54:00,
2013-02-15 23:09:00,34.0,31.0,29.99,West,275,0.0,-999.0,89,-99.99,,,0.00,weatherlink.com 1.10,2013-02-16 04:09:00,
2013-02-15 23:24:00,33.7,31.0,29.99,West,275,0.0,-999.0,89,-99.99,,,0.00,weatherlink.com 1.10,2013-02-16 04:24:00,
2013-02-15 23:39:00,33.3,30.0,29.99,West,275,0.0,-999.0,89,-99.99,,,0.00,weatherlink.com 1.10,2013-02-16 04:39:00,
2013-02-15 23:54:00,32.9,30.0,29.99,West,275,0.0,-999.0,89,-99.99,,,0.00,weatherlink.com 1.10,2013-02-16 04:54:00,